User: anonymous   Login
Location: CNYAC Observatory
(43.2150°N, 74.9500°W)
Time: 10:58:28
(UTC-05:00)
Language:

Cosmos 1300 Rocket - Orbit

View from above orbital plane
View from above orbital plane
View from above satellite
View from above satellite

Ground track
Ground track

The orbit data is extracted from the following two-line orbital elements,

1 12786U 81082B   14331.49493774  .00000645  00000-0  73937-4 0   519
2 12786 082.4874 126.5880 0019199 094.1969 266.1441 14.84263514796437
Epoch (UTC): 27 November 2014 11:52:42
Eccentricity: 0.0019199
inclination: 82.4874°
perigee height: 602 km
apogee height: 629 km
right ascension of ascending node: 126.5880°
argument of perigee: 94.1969°
revolutions per day: 14.84263514
mean anomaly at epoch: 266.1441°
orbit number at epoch: 79643

The dashed part of the orbit path shows where the satellite is in the earth's shadow,  

DLR